Location: Rotheul
(50.2849°N, 11.2349°E)
Time: 10:39:17
(UTC+02:00)

ISS - Visible Passes

Search period start: 21 September 2017 00:00
Search period end: 01 October 2017 00:00
Orbit: 402 x 407 km, 51.6° (Epoch: 21 September)

Date Brightness Start Highest point End Pass type
(mag) Time Alt. Az. Time Alt. Az. Time Alt. Az.
25 Sep -1.0 21:19:21 10° SSW 21:19:25 10° SSW 21:19:25 10° SSW visible
26 Sep -2.3 20:27:35 10° SSW 20:29:45 20° SSE 20:29:45 20° SSE visible
27 Sep -1.7 19:36:21 10° SSE 19:37:57 13° SE 19:39:32 10° ESE visible
27 Sep -2.4 21:10:39 10° SW 21:12:33 30° SW 21:12:33 30° SW visible
28 Sep -3.1 20:18:30 10° SW 20:21:33 36° SSE 20:22:31 29° ESE visible
28 Sep -0.9 21:54:37 10° W 21:55:11 14° W 21:55:11 14° W visible
29 Sep -2.4 19:26:35 10° SSW 19:29:17 24° SE 19:31:59 10° E visible
29 Sep -3.5 21:02:11 10° WSW 21:05:01 64° WSW 21:05:01 64° WSW visible
30 Sep -3.8 20:09:49 10° WSW 20:13:03 62° SSE 20:14:44 25° E visible
30 Sep -1.1 21:46:18 10° W 21:47:23 19° W 21:47:23 19° W visible
